Theta_e
326 324 320 318 318 317 317 317 318 317 318 317 316 316 316 317 317 317 318 318 317 316 316 315 313 312 311 311 312 311 313 314 316 317 316 316 313 313 324 331 332 329 322 324 325 322 322 323 321 317 313 312 312 312 312 314 318 323 326 328 329 329 329 330 330 330 330 330 328 327 326 325 326 326 327 327 327 328 328 329 328 328 328 328 327
322 323 320 318 318 317 318 317 318 318 317 317 316 316 316 316 317 317 317 316 315 315 314 313 312 310 310 309 309 309 309 309 310 310 311 311 309 318 331 335 334 327 319 323 325 323 322 320 317 314 313 312 312 312 313 316 321 326 328 329 329 329 329 329 329 329 329 330 329 328 327 326 327 326 327 328 328 329 329 330 329 328 329 329 328
320 323 320 317 318 318 317 317 317 317 317 316 316 316 316 316 317 317 316 315 314 314 314 313 312 310 310 309 309 309 309 310 311 310 310 310 310 323 334 335 333 322 318 323 324 323 321 318 314 313 313 312 312 313 315 318 323 327 328 329 329 329 329 328 328 329 329 329 329 328 328 328 328 327 328 328 328 329 329 330 329 328 329 329 328
321 321 320 318 318 318 318 317 317 317 317 316 316 316 316 316 317 318 316 314 314 314 314 313 311 310 310 309 310 309 309 310 310 310 310 311 313 324 334 334 327 318 319 322 322 322 319 315 313 313 312 312 312 313 315 318 323 327 328 329 329 329 328 328 328 328 329 330 329 329 329 329 329 328 328 329 329 329 330 330 328 326 327 328 328
323 320 319 318 318 318 318 317 317 317 317 316 316 316 316 316 317 319 316 314 315 315 314 312 311 310 310 309 310 309 309 309 309 310 310 313 314 321 331 328 320 317 318 320 321 321 317 313 313 313 312 312 313 313 315 320 324 326 327 328 329 329 327 327 329 329 329 330 330 330 330 330 329 328 329 329 329 330 330 330 329 327 326 327 328
324 319 319 318 318 318 318 317 317 317 316 316 316 316 316 316 317 318 316 315 315 315 313 312 311 309 309 309 309 309 309 309 309 310 311 315 314 321 329 322 316 317 317 319 320 318 314 313 313 313 312 312 313 314 317 321 324 326 328 329 329 329 328 327 329 329 329 330 330 330 330 331 329 328 330 330 329 330 330 330 329 328 327 327 328
329 322 318 317 318 318 318 317 317 317 316 317 317 316 316 316 317 318 315 315 315 314 312 312 311 309 309 309 309 309 309 309 310 312 313 314 315 323 328 319 315 317 316 318 317 315 313 313 313 312 312 312 313 316 319 321 324 327 329 329 330 330 330 329 329 330 330 331 331 330 331 331 329 329 331 330 330 330 330 330 329 328 328 328 328
336 331 322 318 318 318 318 317 317 316 317 317 317 317 316 317 317 317 315 316 315 313 313 312 311 310 309 309 309 309 309 309 315 319 317 316 319 324 323 316 316 316 316 316 315 313 313 313 313 312 312 312 314 317 319 321 324 327 329 329 330 330 330 330 330 330 330 330 331 331 331 331 329 329 331 331 330 330 330 329 328 328 328 328 328
338 337 330 324 319 318 319 316 317 317 317 317 318 317 316 317 317 317 316 316 315 314 313 312 311 310 309 310 309 310 310 310 318 325 323 321 321 322 318 315 316 315 315 314 313 313 313 313 312 312 312 313 315 319 319 320 323 327 329 329 329 329 330 330 330 330 331 330 331 331 331 331 329 331 332 331 330 330 330 329 328 328 328 328 328
339 338 336 330 321 318 318 317 317 317 317 317 319 318 317 317 317 317 316 316 315 313 313 312 311 310 310 310 309 310 311 311 320 329 329 326 321 318 317 315 315 314 314 313 313 313 313 313 312 313 312 313 317 319 319 319 322 326 328 328 328 329 329 329 330 331 331 330 331 331 331 330 330 331 331 331 330 329 330 329 329 328 328 329 328
341 340 338 333 322 318 318 317 317 317 317 317 319 318 317 318 317 316 316 316 314 314 313 312 311 311 310 310 310 309 311 313 320 329 330 327 320 317 316 314 315 314 314 313 313 313 313 313 312 313 312 314 317 319 318 317 320 325 328 327 328 328 329 329 329 330 330 330 331 331 331 330 330 331 331 330 329 329 330 329 329 329 329 330 330
343 342 339 333 322 317 319 318 317 318 317 317 318 317 318 318 317 316 316 316 314 314 313 312 311 311 310 310 310 309 311 314 318 325 327 325 321 318 316 314 314 313 313 313 313 313 313 313 313 312 313 315 318 319 317 316 318 323 326 326 327 328 328 329 329 330 330 331 331 331 331 330 330 331 330 329 329 330 330 329 329 329 329 329 330
344 341 337 330 320 318 319 318 317 317 317 317 317 317 318 317 316 316 317 316 314 314 313 312 312 311 311 310 310 309 311 313 316 321 324 324 321 318 316 314 314 313 313 313 313 313 313 313 313 312 313 315 318 319 317 315 316 319 323 325 326 327 329 329 330 331 332 332 331 331 331 330 330 330 329 328 329 329 329 329 328 329 329 328 329
343 340 334 326 319 318 319 319 318 317 317 316 317 317 317 317 316 316 317 315 313 314 313 313 312 311 311 310 310 310 310 312 315 318 320 321 319 317 315 314 313 313 313 313 313 313 313 313 312 313 314 316 319 319 317 316 315 315 319 322 325 327 329 330 330 331 332 332 332 332 332 330 329 329 329 328 328 329 329 328 328 330 329 328 328
342 340 333 324 319 318 319 319 318 317 317 316 317 316 317 316 315 317 317 314 313 313 313 313 312 311 311 310 310 310 310 311 314 315 317 318 317 316 315 314 313 313 313 313 313 313 313 313 313 313 314 317 319 318 317 316 315 314 315 317 322 326 328 330 330 331 331 332 332 332 332 330 329 328 328 328 328 329 328 328 329 330 329 328 328
337 339 335 325 320 318 318 319 318 317 317 316 316 316 317 316 316 318 316 314 313 313 313 313 312 312 311 310 310 310 310 311 312 313 314 315 315 315 314 313 313 313 313 313 313 313 313 313 313 314 315 318 318 317 315 315 314 313 313 313 317 323 327 329 331 331 331 332 332 333 332 330 328 328 328 328 328 328 328 328 329 330 329 329 329
332 334 335 326 320 319 318 319 318 317 317 317 316 316 316 316 317 318 316 313 313 313 313 313 313 312 311 311 310 310 310 311 312 312 312 314 314 314 313 313 313 313 313 313 313 313 313 313 313 314 316 317 316 314 312 312 312 313 313 313 316 321 326 329 331 331 332 332 332 333 332 330 329 328 329 329 328 329 329 329 329 329 329 329 329
333 329 329 326 321 318 318 319 318 318 317 317 316 316 317 317 317 318 315 313 312 312 313 313 313 312 311 310 310 310 310 311 311 312 312 313 313 313 313 313 313 313 313 313 313 313 313 313 314 315 317 315 312 311 311 312 313 314 314 315 319 325 328 330 332 332 332 332 332 333 332 330 329 328 329 329 329 330 330 329 329 330 329 329 329
338 329 324 323 321 319 318 318 318 318 317 317 316 316 317 318 318 317 315 312 312 312 312 312 313 312 311 311 311 310 311 310 311 312 312 313 313 313 313 313 313 313 313 313 312 313 313 314 315 316 315 312 312 314 314 314 315 317 317 318 322 327 330 331 332 333 332 333 332 332 331 329 327 328 329 329 330 330 330 329 329 330 329 329 330
340 335 328 323 321 319 318 318 319 318 318 317 316 316 318 318 318 317 313 311 311 311 312 312 312 312 312 311 311 311 310 311 311 311 312 312 312 312 312 313 313 312 312 312 312 312 313 314 315 314 311 312 317 319 318 317 320 321 322 324 326 329 332 332 333 333 333 333 332 331 331 329 327 328 329 329 330 330 330 329 329 329 329 329 328
339 337 335 328 323 320 319 319 319 319 318 317 316 316 317 318 317 316 313 311 310 310 311 311 312 312 311 312 311 311 310 310 311 311 311 312 312 312 312 312 312 312 312 312 313 313 314 314 313 312 310 316 324 325 323 323 325 327 328 330 331 332 333 333 334 333 333 332 331 331 330 328 327 329 329 329 329 330 329 329 329 329 328 328 327
337 333 334 331 326 322 320 319 319 319 319 318 317 317 317 317 317 315 312 311 310 310 311 311 312 311 312 312 312 311 310 310 310 310 311 311 311 312 312 312 312 312 313 313 313 313 313 312 311 310 311 322 330 329 329 329 330 331 331 333 333 333 333 333 333 332 332 332 331 331 330 328 328 328 329 329 329 329 329 329 329 329 328 327 327
336 331 329 329 327 324 321 319 319 319 319 318 318 317 317 318 317 315 313 311 310 310 311 311 311 311 312 312 312 311 311 310 310 310 310 310 311 311 312 312 312 313 313 313 313 312 311 310 310 310 313 326 332 332 332 332 332 333 333 334 333 333 333 333 333 332 332 332 331 330 329 327 328 329 328 329 330 329 329 329 329 328 327 327 326
337 332 328 329 328 324 321 320 319 318 318 319 319 318 318 318 318 316 313 311 309 310 310 310 310 311 312 312 312 312 312 311 310 310 310 310 310 310 311 311 311 311 311 311 311 310 310 310 311 311 314 327 333 332 333 333 334 334 334 334 333 333 333 333 332 332 332 331 330 328 327 327 327 328 328 329 330 329 328 329 329 327 327 326 325
338 333 330 332 330 324 321 320 319 319 319 319 320 320 319 319 317 316 314 310 309 310 309 309 310 312 313 313 313 313 314 313 312 311 310 310 310 310 310 310 310 310 310 310 310 310 311 310 314 317 319 329 333 333 334 334 334 334 334 334 333 333 333 332 331 331 332 331 329 327 326 326 327 327 327 329 329 328 328 328 327 326 325 324 322
338 334 333 335 331 323 320 320 321 321 320 321 322 322 320 319 317 316 313 311 310 309 309 308 310 312 313 314 317 319 319 317 315 314 313 312 311 310 310 310 310 310 310 310 310 312 314 315 321 327 329 332 334 334 334 334 335 334 334 334 333 333 333 332 331 332 331 330 328 327 326 327 327 327 328 328 328 327 327 325 324 324 322 319 314
338 335 335 336 332 325 325 326 324 323 324 325 327 325 322 320 318 316 313 310 310 309 309 309 311 313 314 318 322 324 324 323 323 323 321 318 315 312 311 311 310 310 311 314 316 320 321 322 328 333 334 335 335 334 334 334 334 334 334 334 333 333 332 331 331 331 330 328 327 326 326 326 326 326 326 326 326 325 324 322 321 318 313 309 304
337 335 336 337 335 334 336 335 328 326 329 330 330 329 325 322 319 317 314 310 309 309 308 309 311 313 315 321 324 326 327 327 329 330 329 326 322 318 314 312 313 315 319 323 325 327 329 330 332 334 335 336 335 334 334 334 334 334 334 334 333 333 332 331 330 330 329 327 326 325 325 326 326 325 324 324 323 320 317 314 311 307 304 301 300
337 336 337 337 337 338 340 340 333 329 332 332 331 331 330 327 321 317 314 311 309 308 308 309 312 313 315 319 322 326 330 330 331 332 332 331 328 326 321 318 320 324 328 330 329 330 333 334 334 335 336 336 334 334 333 333 333 333 334 333 333 332 331 331 330 329 327 325 324 324 325 325 324 324 323 320 315 309 306 304 302 301 300 300 300
337 337 338 338 337 337 339 340 336 333 334 334 333 332 332 331 326 320 314 311 310 308 309 310 311 313 316 318 321 327 331 332 332 333 332 332 331 330 328 326 328 330 331 331 331 332 333 334 335 335 335 335 334 334 334 334 333 333 334 333 332 332 331 331 330 329 326 325 324 324 324 324 323 322 317 310 304 302 301 300 300 300 300 301 301
337 339 339 339 338 336 338 339 338 336 335 335 335 334 333 331 328 324 318 312 310 308 309 310 311 314 316 319 324 328 330 332 332 333 333 332 332 332 331 330 330 331 330 330 332 333 334 334 335 335 335 335 334 334 334 334 333 333 333 333 332 332 332 331 330 329 328 326 326 325 323 323 321 315 307 302 301 301 300 300 300 300 300 300 301
338 340 340 340 339 336 337 339 338 337 335 335 336 335 334 330 326 324 320 313 309 309 309 310 311 315 318 320 324 327 331 333 333 333 334 333 333 332 332 331 331 331 331 331 331 332 333 334 335 335 334 334 334 334 334 333 333 333 333 333 333 332 332 331 330 329 328 327 326 324 323 323 316 306 301 300 301 301 300 300 300 300 300 300 300
339 341 340 340 340 337 336 338 339 338 337 337 336 335 334 331 325 321 317 312 310 309 309 310 312 315 318 321 324 328 332 333 334 334 334 335 334 333 333 333 331 331 331 332 332 332 333 335 335 334 334 334 334 334 333 333 333 333 333 333 333 332 332 331 330 329 328 327 325 323 323 320 309 301 300 301 300 300 301 300 300 300 300 300 300
339 341 341 341 340 338 336 338 340 340 339 338 337 336 334 330 327 321 315 312 311 310 310 311 313 316 319 322 326 330 332 333 333 334 333 335 334 333 334 334 333 333 332 333 333 333 334 335 335 335 335 335 334 334 334 333 333 332 332 333 332 332 331 330 329 328 328 326 323 323 321 313 302 300 301 300 300 300 300 300 300 300 300 300 299
339 340 340 341 340 339 337 337 339 340 339 338 337 336 334 330 329 326 320 317 316 316 317 317 315 317 320 322 326 329 331 332 333 333 333 334 332 332 333 334 334 334 334 333 333 333 334 335 335 335 334 334 333 333 333 333 332 332 332 332 331 330 329 329 328 327 326 324 323 322 315 305 300 301 301 300 301 300 300 300 300 300 300 299 299
338 339 339 340 340 339 337 336 338 339 339 339 338 336 335 332 329 328 326 324 322 320 322 322 319 319 321 324 326 329 330 332 332 332 332 332 331 331 333 333 334 334 334 334 333 333 334 335 335 335 334 334 333 333 333 333 332 331 331 331 330 329 329 328 327 325 324 322 322 317 306 300 300 301 300 300 300 300 300 300 300 299 299 299 298
338 339 339 340 340 340 337 335 336 338 339 339 338 336 335 333 331 329 328 327 326 324 323 323 322 321 322 325 327 330 331 332 332 332 332 331 331 332 333 333 334 334 334 334 333 333 333 334 334 334 334 333 333 333 332 331 331 330 330 329 329 328 328 327 325 323 322 322 318 308 300 300 300 300 300 300 300 300 300 299 299 299 299 298 298
340 340 340 340 340 340 338 336 335 338 339 339 339 336 335 335 333 331 330 330 330 328 325 323 323 322 324 327 328 330 332 332 332 332 331 330 331 332 332 333 334 334 334 334 333 332 332 333 333 333 333 333 333 333 332 331 331 330 329 329 328 327 326 324 323 322 322 320 312 302 300 300 300 300 300 300 300 300 299 299 299 298 298 298 298
341 342 342 341 341 340 338 336 336 338 339 339 339 337 336 335 335 334 333 333 333 330 326 325 325 325 327 328 328 330 331 331 332 332 330 330 330 331 331 333 334 334 334 333 333 332 331 332 333 333 333 332 332 332 332 331 331 330 329 328 327 325 323 322 321 321 319 314 305 300 300 300 300 300 300 300 299 299 299 299 298 298 298 297 298
341 342 342 342 341 341 339 337 336 337 339 339 339 337 336 336 336 335 334 335 334 331 327 326 328 328 330 330 328 329 330 331 332 332 331 330 330 330 331 332 333 333 333 333 332 331 330 330 332 333 332 331 331 331 331 331 331 329 328 326 325 323 322 321 320 318 312 306 302 301 302 301 301 300 299 299 299 298 298 298 298 297 297 297 297
342 342 342 342 342 341 340 338 337 337 338 339 338 337 336 336 335 335 334 334 333 330 328 328 329 330 331 330 328 329 331 331 332 332 331 330 330 331 331 331 332 332 333 333 333 332 330 331 333 333 332 331 331 330 330 330 330 328 326 325 323 322 320 318 316 312 306 303 303 302 302 302 301 300 299 299 298 298 298 298 298 297 297 297 297
342 342 342 342 342 341 340 338 337 338 338 338 338 337 336 335 334 334 334 334 332 329 329 330 330 331 332 330 330 331 332 332 333 333 332 331 331 331 331 331 331 332 332 333 333 333 332 332 333 333 332 332 331 330 330 329 329 328 327 324 322 320 318 315 313 309 306 304 304 303 302 301 300 300 299 298 298 298 298 297 297 297 297 297 297
342 342 343 342 342 341 340 339 338 338 338 338 338 337 337 335 334 334 333 334 332 329 330 332 332 333 332 330 331 332 332 333 333 333 332 331 331 331 331 330 330 331 331 332 333 332 331 331 332 333 332 332 331 330 330 329 328 328 326 323 321 319 316 314 312 310 307 305 304 304 302 301 300 300 299 298 298 298 298 297 297 297 297 297 297
343 343 343 343 342 341 341 339 339 338 338 338 338 337 337 336 335 334 334 333 332 330 331 333 333 334 332 330 331 333 333 334 334 333 332 331 331 331 331 331 330 330 330 330 331 331 330 330 331 331 332 331 330 329 329 329 328 328 325 321 319 318 317 315 313 311 308 306 305 304 303 301 300 300 299 298 298 299 298 297 297 297 297 297 297
343 343 342 342 342 341 341 340 339 339 338 338 338 338 337 336 336 336 336 335 333 332 333 334 334 334 332 330 332 334 334 334 333 333 331 331 331 331 331 331 331 331 330 331 331 331 330 330 330 331 331 330 328 328 329 328 328 328 325 320 318 318 318 317 314 312 310 307 305 304 303 301 300 299 299 298 298 299 298 298 298 298 298 298 298
343 342 342 342 342 342 341 341 340 339 339 338 338 338 337 336 336 336 335 335 334 333 333 334 334 334 331 331 334 335 334 333 333 333 332 331 332 331 331 331 331 331 330 330 331 331 331 331 330 331 331 331 329 328 328 328 328 327 324 320 318 319 319 318 315 312 310 307 305 305 304 301 300 300 299 299 299 299 298 298 299 299 299 299 299
342 342 343 343 342 342 341 341 340 339 339 339 338 338 337 337 335 334 334 334 334 334 334 334 334 333 332 333 335 336 335 333 333 333 332 332 332 332 331 331 331 330 329 330 331 331 331 331 331 331 331 331 329 328 327 327 327 326 324 321 320 321 322 321 318 315 311 308 306 305 304 300 300 301 300 299 300 300 300 300 300 300 300 300 300
341 342 343 343 342 342 341 341 341 340 339 339 339 338 338 337 336 334 334 334 333 333 334 334 334 334 333 334 335 336 335 333 333 333 332 332 332 332 331 331 331 331 330 330 331 331 331 331 331 330 330 330 329 328 327 326 326 326 324 322 321 322 323 323 322 319 315 310 306 306 304 300 301 303 301 300 301 300 301 300 300 300 300 300 300
341 342 343 343 343 342 341 341 341 340 339 339 339 338 338 338 336 335 334 334 333 333 333 334 335 335 334 335 335 336 335 334 333 333 332 332 332 332 332 331 331 331 331 330 330 330 329 328 328 329 328 328 327 327 326 326 325 325 324 323 322 322 324 324 322 319 316 311 308 308 305 301 302 304 301 300 301 301 301 301 301 300 300 300 300
341 342 343 343 343 342 341 341 341 340 339 339 339 339 339 338 337 335 334 334 334 334 334 335 335 335 335 335 336 335 334 334 334 333 332 332 332 332 332 332 332 332 331 330 328 327 326 326 327 328 327 327 326 326 326 325 325 324 324 324 323 321 322 323 322 320 316 313 311 310 307 303 304 306 302 301 302 301 301 302 301 300 300 300 300
343 344 344 344 343 342 342 341 341 340 339 339 339 339 339 339 338 335 333 333 332 333 334 336 336 336 336 336 336 335 334 334 334 333 332 332 333 333 333 333 333 332 331 329 327 326 326 326 327 327 327 326 325 325 325 324 324 324 323 323 322 320 321 320 320 319 318 316 314 312 308 305 305 305 302 301 302 301 302 302 301 300 300 301 301
Wind_Speed
22 21 20 19 18 18 17 16 16 15 14 13 13 12 11 11 10 11 11 12 11 11 10 10 9 8 8 7 7 6 6 6 7 7 7 8 9 12 15 14 11 13 17 19 19 19 18 18 17 16 15 13 13 13 12 11 11 12 12 12 12 12 13 14 14 14 16 17 18 19 21 21 21 21 20 20 20 19 19 19 18 18 17 16 15
25 23 20 19 19 18 17 17 16 15 14 13 12 12 11 11 10 11 11 11 11 11 10 10 9 8 7 7 7 7 7 7 7 7 8 9 12 17 17 14 12 13 17 19 20 19 18 18 17 16 14 13 13 12 11 11 11 12 12 11 11 12 12 13 13 13 14 15 16 17 19 20 20 21 20 20 19 19 19 19 18 19 17 16 15
24 24 21 20 19 18 18 17 17 15 14 14 12 12 11 11 11 12 12 11 10 11 10 10 9 8 8 7 7 8 8 8 8 9 11 11 14 21 19 14 13 15 18 20 20 19 18 17 17 15 14 13 13 12 11 11 11 11 11 11 11 11 11 11 12 12 13 14 15 16 18 20 20 20 20 20 19 19 19 17 17 18 16 16 16
23 24 23 21 20 19 18 17 17 16 14 14 13 12 11 11 11 12 12 11 11 11 10 10 9 8 8 8 8 8 9 9 9 10 12 12 16 21 18 15 15 17 20 21 20 19 18 17 16 15 13 13 12 12 11 10 11 10 10 10 10 10 9 10 11 12 12 13 14 16 17 19 20 20 19 19 19 19 18 17 17 17 15 14 15
22 23 23 22 21 19 18 17 16 16 14 14 13 12 11 11 11 12 12 11 11 11 10 10 9 8 8 8 9 9 9 9 9 10 12 13 16 18 17 18 19 19 20 21 20 19 18 17 15 14 13 13 12 11 10 10 10 10 9 9 9 8 6 8 10 11 12 12 14 15 17 19 20 19 18 18 18 17 16 15 16 16 15 14 13
20 21 22 21 21 20 18 17 16 15 14 14 13 12 11 10 11 12 12 12 12 11 10 9 9 8 8 8 9 9 9 9 9 10 13 14 16 17 16 20 22 21 21 21 20 19 18 16 14 14 13 12 12 11 10 10 9 9 8 7 7 6 4 6 9 10 11 12 13 15 16 18 19 18 17 16 16 16 16 15 16 16 15 14 13
17 18 19 19 19 19 17 17 15 15 14 14 13 12 11 10 11 12 12 12 12 11 10 9 9 9 8 8 8 9 9 9 10 12 14 15 16 16 18 21 22 22 21 21 21 19 17 15 14 14 13 12 11 10 10 9 8 8 6 5 5 4 3 5 7 8 10 11 12 14 15 17 18 17 15 15 15 15 15 15 16 15 14 14 13
17 17 17 17 17 17 17 16 15 15 14 14 13 12 12 11 11 12 12 12 12 12 10 9 8 9 8 8 7 8 8 9 11 13 14 16 17 17 20 22 22 22 22 22 21 19 17 15 15 14 13 11 11 10 9 8 8 7 6 4 3 2 2 4 5 7 9 10 12 13 14 16 17 15 14 14 15 14 14 15 15 15 14 14 13
18 18 17 17 16 17 16 16 16 15 14 14 13 12 12 11 11 11 12 12 12 12 10 9 8 8 8 8 7 7 8 10 12 13 14 16 17 18 22 23 23 23 23 22 21 19 17 15 14 13 12 11 10 9 9 7 7 7 6 5 4 2 1 4 6 7 8 9 11 12 13 14 15 14 13 14 14 14 15 15 15 15 15 15 14
18 18 17 18 18 18 17 16 16 15 15 14 13 13 12 12 12 11 12 12 12 12 10 9 9 8 8 8 7 7 8 10 12 13 14 15 17 19 22 23 23 23 23 22 20 18 16 15 13 12 11 10 9 8 7 6 6 6 4 3 3 2 1 4 5 6 7 8 9 10 12 14 14 13 12 13 13 14 14 13 14 15 16 15 16
17 17 17 19 19 20 18 17 16 15 15 14 14 13 13 12 12 12 12 13 12 11 10 10 9 9 8 8 8 7 8 10 12 13 14 15 17 20 22 23 23 23 23 21 19 17 16 14 12 11 10 9 8 7 6 5 5 5 3 2 1 1 1 4 5 5 6 7 9 10 12 14 14 13 12 13 14 14 13 13 13 15 15 14 15
17 17 18 20 21 21 19 18 16 16 15 15 14 14 13 13 13 12 13 13 13 11 10 10 9 9 8 8 8 7 7 10 13 13 14 15 17 20 22 23 23 22 22 21 19 17 15 13 11 10 9 8 8 6 5 4 5 4 2 2 2 1 2 4 4 5 7 8 9 11 12 14 14 12 12 13 13 13 12 13 13 14 14 13 13
17 17 18 20 22 21 20 19 17 17 16 15 15 14 14 14 13 13 13 14 13 12 11 10 9 9 8 8 8 7 7 9 12 14 14 15 17 20 22 22 22 22 21 20 18 16 15 13 11 9 8 8 7 6 5 4 4 3 2 3 3 2 2 3 4 5 6 8 9 10 12 14 13 12 12 12 12 12 12 13 13 12 13 13 12
14 17 20 21 22 22 20 19 18 17 17 16 16 15 15 14 13 13 14 14 13 12 11 11 10 9 8 8 7 7 7 8 10 13 13 14 18 21 22 22 21 21 20 19 17 16 14 12 10 9 8 7 6 5 4 3 3 3 3 3 4 2 2 3 4 4 5 7 8 9 11 13 12 11 11 12 12 11 12 13 13 12 13 13 11
12 17 20 22 24 22 21 20 19 19 18 17 16 16 15 14 13 13 14 14 14 13 12 11 10 9 9 8 8 7 7 7 8 10 12 15 18 21 22 21 21 20 19 18 16 15 13 11 9 8 7 6 5 5 4 3 3 3 4 4 4 3 2 3 4 5 6 7 8 9 11 12 12 11 11 12 11 11 12 13 12 12 13 13 11
11 17 21 23 24 24 23 21 20 19 18 17 16 15 14 14 13 14 15 14 14 13 13 12 11 10 9 8 8 8 7 8 8 9 11 15 19 21 22 21 20 20 19 17 15 14 12 11 9 7 6 5 5 4 4 4 4 3 5 4 4 3 2 2 4 5 7 8 9 9 10 12 12 12 11 11 12 12 12 12 11 12 12 11 11
9 16 21 24 25 24 23 22 21 19 18 17 16 15 14 14 14 14 14 14 14 14 13 12 12 11 10 9 8 8 8 8 8 9 10 14 18 20 21 20 19 19 17 16 14 13 12 10 8 7 6 5 5 4 4 5 4 4 5 4 3 2 2 2 4 6 7 8 9 9 10 11 11 12 11 11 11 11 11 11 10 10 10 10 10
10 15 21 23 24 24 23 22 22 20 19 18 16 15 14 15 15 15 15 15 15 14 14 13 12 12 11 10 9 9 9 9 9 9 10 12 16 19 19 19 18 17 16 15 14 12 11 9 8 7 6 5 5 5 5 5 4 5 5 4 3 2 2 3 5 6 7 7 7 8 9 10 10 11 11 10 10 9 10 10 9 9 10 10 10
10 14 19 22 23 22 23 22 22 21 19 18 17 16 15 15 15 15 15 15 15 15 14 14 13 12 11 11 10 10 10 10 10 10 11 12 14 16 17 17 16 15 15 14 13 12 10 9 8 7 7 6 6 5 5 5 4 5 5 4 2 1 2 5 6 6 7 7 7 8 9 9 10 10 9 9 9 9 9 9 9 9 9 9 10
10 13 16 19 21 21 22 22 22 21 19 18 17 17 17 17 17 16 16 16 16 15 15 14 14 13 12 12 11 11 10 11 11 11 11 12 13 14 15 15 14 14 14 13 12 11 10 9 8 7 7 6 6 6 5 5 5 5 4 3 2 1 3 5 4 5 7 7 8 9 8 9 9 9 8 9 9 9 9 9 9 9 8 9 9
12 13 14 16 18 20 21 21 21 20 19 19 18 18 18 18 18 18 17 17 16 16 16 15 14 14 13 13 12 11 11 11 11 11 11 11 12 13 13 14 14 13 13 13 12 11 10 9 8 7 7 7 7 6 6 5 5 5 3 2 2 2 4 4 3 5 6 6 8 8 8 8 8 8 8 9 9 9 9 9 8 8 8 9 10
14 15 15 15 16 19 21 21 21 20 19 19 18 19 19 19 19 19 18 17 17 17 17 16 15 14 14 14 13 12 12 11 11 11 11 11 12 12 13 13 13 13 13 13 12 11 10 9 9 8 8 9 8 7 6 6 5 3 2 2 2 3 4 3 4 5 5 6 7 7 7 8 7 7 7 9 9 8 9 8 8 8 8 9 10
16 15 15 15 16 19 22 21 21 20 20 19 19 19 19 19 19 19 18 18 18 18 18 16 15 15 15 14 14 13 12 12 12 11 12 12 12 12 13 13 13 13 13 13 12 11 11 10 9 9 10 11 10 8 7 6 5 3 3 4 2 3 4 3 4 5 6 6 6 7 7 6 6 6 7 8 8 8 8 8 7 8 8 9 10
16 15 14 14 15 18 21 21 20 20 19 19 19 19 19 19 19 19 18 18 18 18 18 16 16 16 15 15 14 14 13 13 13 12 12 12 12 13 13 13 13 13 13 13 12 11 10 10 9 10 12 12 10 9 8 7 5 4 5 4 2 3 3 3 4 5 6 6 6 7 7 5 4 5 7 7 7 8 8 6 7 9 10 11 13
16 15 14 14 15 18 20 21 20 19 19 19 19 18 18 18 19 19 19 19 18 18 18 17 17 17 16 15 15 14 13 13 13 12 12 12 12 12 12 12 13 13 12 12 11 10 9 9 10 11 12 12 10 9 8 8 7 6 6 4 2 2 2 3 4 5 5 6 7 7 6 5 4 5 6 6 6 6 6 7 10 12 13 15 17
17 16 15 13 16 19 20 20 19 19 18 18 17 17 17 18 18 19 19 19 18 18 18 18 18 18 17 16 15 14 13 13 13 12 12 12 12 12 12 12 12 12 12 11 10 10 9 10 11 11 11 10 8 8 9 8 8 7 6 3 1 1 1 2 3 4 5 6 6 6 6 6 5 5 4 5 6 7 9 13 15 16 17 17 18
18 17 14 14 17 20 20 19 19 19 18 18 17 16 17 17 18 19 20 19 19 19 19 20 20 19 18 17 15 14 13 13 13 12 12 12 12 12 12 12 12 11 11 10 10 10 10 10 11 10 9 8 7 8 9 8 7 6 4 3 3 2 2 2 3 5 6 6 6 6 6 6 5 5 5 7 9 11 13 15 16 16 17 16 15
19 18 17 17 18 20 20 18 19 20 19 19 18 17 16 17 18 20 20 19 19 20 20 21 21 20 19 17 16 14 13 13 12 11 11 11 11 11 12 11 11 11 11 11 11 11 10 10 10 10 9 8 8 9 9 9 7 5 3 3 4 3 3 3 4 5 6 6 6 7 6 6 6 7 8 9 11 12 13 14 15 14 14 13 13
21 19 19 19 18 19 19 18 19 20 20 20 19 18 17 17 18 20 20 20 20 19 20 21 21 20 19 18 16 14 13 13 11 10 10 10 11 11 11 11 11 12 11 11 11 11 11 10 10 10 9 10 10 9 10 9 7 4 4 5 5 4 4 3 3 5 6 6 7 7 7 7 8 9 10 11 11 11 11 12 12 12 12 12 13
21 19 20 20 17 18 19 18 19 20 21 20 19 19 18 18 18 19 20 20 20 19 20 21 21 20 19 17 16 15 14 13 12 11 10 10 11 11 11 11 12 12 11 11 11 11 11 10 11 11 11 12 10 9 10 9 6 5 6 6 5 5 4 2 4 6 6 7 8 8 8 8 9 10 11 10 9 9 10 10 10 11 12 13 13
23 21 21 19 17 17 18 19 19 19 21 20 19 19 18 17 16 19 21 20 19 20 21 21 21 20 19 18 16 15 15 13 12 11 10 10 11 11 11 12 12 12 11 11 11 11 11 10 12 13 13 12 10 9 9 7 5 6 7 7 6 5 4 4 5 7 7 8 9 9 9 9 10 10 9 8 8 9 10 10 11 11 12 13 14
27 23 21 19 17 16 18 20 20 19 20 20 19 18 17 15 15 19 21 19 19 20 21 22 21 20 20 18 16 16 14 12 11 10 9 9 11 12 12 12 12 12 11 11 11 11 11 11 13 14 13 12 10 9 8 6 5 6 8 7 6 5 5 5 6 8 9 10 11 11 10 11 11 10 9 8 9 10 11 11 11 12 13 13 13
28 23 21 20 16 15 18 20 21 20 20 19 19 18 17 16 15 18 20 20 20 21 22 22 21 21 21 19 17 15 12 10 10 9 9 9 10 11 12 12 12 12 12 12 12 12 12 13 14 14 13 11 9 8 7 6 6 7 8 7 7 6 6 6 7 9 10 12 12 12 12 11 10 9 9 9 10 11 11 11 11 12 12 12 12
27 24 23 20 16 16 18 20 22 22 20 19 20 18 18 17 16 17 19 20 20 21 22 22 22 22 22 20 17 14 11 10 10 11 11 10 10 11 11 12 13 13 13 13 12 12 13 14 15 14 13 11 9 8 7 6 7 7 8 7 6 6 5 6 7 9 10 12 11 12 12 10 9 9 9 10 10 11 11 11 11 11 11 11 11
27 25 24 21 17 16 17 21 23 23 21 21 21 21 19 18 17 18 19 19 20 21 22 23 23 23 23 21 16 13 11 11 11 12 12 12 11 9 10 11 13 13 13 13 13 14 15 15 15 14 13 12 9 8 7 7 7 8 7 7 6 5 5 7 8 9 11 11 11 11 10 8 9 9 10 10 10 10 10 10 10 10 9 10 10
27 24 23 21 19 17 17 20 23 24 23 22 22 22 21 19 17 17 19 19 20 21 22 23 24 24 22 19 15 13 13 12 12 12 13 14 11 9 10 12 12 13 13 13 13 14 16 16 16 14 13 13 10 9 9 8 7 7 7 6 5 5 6 8 9 10 10 10 11 11 8 7 8 9 9 9 9 9 9 9 8 8 8 9 9
28 25 24 23 21 19 18 20 22 24 24 23 22 23 23 21 18 17 17 19 19 19 20 22 24 23 21 17 15 15 14 13 13 13 14 14 12 10 11 12 12 13 13 13 14 15 16 16 16 14 12 12 12 11 10 9 8 7 6 5 5 6 8 9 9 9 9 10 10 9 7 7 7 8 8 8 9 9 8 7 7 7 8 9 9
30 27 25 23 21 19 19 20 22 24 25 24 23 23 23 21 19 18 17 17 18 19 19 21 23 22 19 16 15 16 15 14 13 13 14 14 12 12 12 12 12 13 13 14 15 16 16 16 16 14 11 12 13 12 11 10 8 7 6 6 7 8 9 8 8 8 8 10 9 7 6 7 7 8 8 8 8 8 7 7 7 7 8 9 9
32 30 27 25 23 21 20 22 23 25 25 24 24 24 23 21 20 19 19 19 18 20 20 20 21 20 18 17 17 17 16 15 14 14 14 13 13 13 13 13 13 14 14 15 16 17 17 16 16 14 12 13 14 13 12 11 9 8 8 8 8 8 8 7 6 7 8 8 6 5 5 6 7 8 8 7 7 7 7 7 7 8 8 8 8
35 33 31 29 27 24 23 24 25 26 26 26 26 27 25 24 24 22 23 22 21 22 22 20 20 20 18 17 17 18 16 15 15 15 15 14 14 14 14 14 14 15 15 16 17 18 17 16 16 14 14 15 15 14 13 11 10 9 8 7 7 7 6 5 5 5 6 5 4 4 4 5 6 7 7 6 6 7 7 7 7 7 7 7 7
38 35 34 33 31 28 26 26 28 28 29 29 30 30 29 27 27 27 26 25 25 25 24 22 21 20 19 18 18 18 17 16 15 15 16 16 15 14 14 15 15 15 14 15 16 17 16 16 16 14 14 15 15 15 14 13 11 10 9 8 7 7 5 4 4 4 3 3 3 4 5 5 6 5 5 5 5 5 6 6 6 6 6 7 7
40 38 37 35 33 31 28 28 29 31 30 31 31 31 30 29 29 29 28 27 27 27 26 23 22 20 20 20 19 18 17 16 15 15 16 16 16 15 15 15 15 15 14 15 16 16 16 16 17 15 14 15 15 16 16 15 13 11 10 8 9 8 6 5 5 4 2 2 3 4 5 6 6 5 4 5 4 3 4 5 5 6 7 7 9
41 39 38 36 35 33 31 30 30 32 32 31 31 31 30 30 30 29 28 28 28 27 25 22 21 21 21 22 21 19 18 17 16 15 16 16 16 15 15 16 15 15 15 16 17 17 17 18 18 17 16 16 16 17 18 17 15 12 10 9 11 10 9 9 7 5 3 2 3 4 5 6 7 7 6 6 5 2 2 4 5 6 7 8 9
43 40 40 39 38 36 34 32 32 32 32 32 32 31 30 31 30 28 27 28 27 26 25 23 23 22 23 24 22 20 19 18 17 17 17 16 16 15 15 16 16 15 15 16 17 18 18 19 19 19 19 18 17 18 19 18 17 14 11 10 11 11 10 10 9 7 5 4 3 3 4 6 6 7 6 6 6 1 1 4 5 7 8 9 10
44 42 41 40 39 38 36 34 32 33 32 32 32 32 32 32 32 30 29 29 29 28 27 27 26 25 25 25 23 20 19 19 18 18 17 17 16 16 16 16 16 15 15 16 18 18 19 19 19 19 18 17 16 18 20 19 18 16 13 11 10 10 11 10 10 9 8 6 5 4 3 4 4 4 4 5 5 2 3 3 5 7 9 11 13
45 42 41 41 40 39 37 35 33 34 33 33 33 33 33 34 34 34 34 33 32 32 31 30 28 27 26 25 22 21 20 19 19 19 18 17 16 16 16 16 16 15 15 16 18 19 20 19 18 19 18 17 16 18 20 20 19 17 16 15 13 10 9 9 10 9 9 9 7 6 4 3 0 2 2 3 4 2 2 3 4 6 9 11 13
44 43 43 42 41 41 39 37 35 35 34 34 34 34 34 34 35 36 36 35 35 34 32 30 28 26 26 24 22 21 20 20 19 18 17 17 16 17 16 17 17 16 15 16 18 19 20 19 19 20 19 18 17 19 20 20 21 19 18 19 17 13 9 8 9 9 9 10 10 9 6 5 3 3 2 2 2 2 3 3 4 6 8 10 12
44 45 45 44 43 43 41 38 36 35 35 35 35 35 35 35 35 36 36 35 35 34 32 30 28 27 26 24 23 22 22 20 19 19 17 17 17 17 16 17 16 15 15 16 18 19 20 20 19 20 19 18 19 19 20 21 21 20 19 19 19 16 13 10 8 9 9 10 11 12 9 7 5 4 2 2 2 2 2 3 4 5 6 8 10
46 46 47 46 45 45 43 40 37 36 36 36 36 36 35 34 35 36 36 36 35 34 33 30 29 28 27 25 24 23 22 21 20 19 18 17 17 17 17 17 16 16 16 16 18 19 19 19 18 18 18 19 20 20 20 21 20 19 18 18 18 18 16 13 10 10 11 10 11 13 12 10 8 5 4 4 4 2 1 1 3 4 5 7 9
48 48 48 48 48 46 45 42 39 37 36 36 37 37 36 35 35 36 36 36 36 35 33 31 30 28 27 27 25 24 23 22 21 20 19 19 18 18 18 17 16 16 17 18 19 19 19 18 18 18 19 20 21 22 21 20 19 19 18 18 18 18 18 16 14 13 14 13 11 11 12 12 9 6 6 6 6 4 2 3 4 4 6 7 9
50 50 50 49 49 48 47 44 41 38 37 37 38 38 37 36 36 36 36 37 37 36 35 33 31 29 28 28 26 25 24 23 22 21 21 20 20 19 19 19 18 17 18 19 19 19 19 19 19 19 20 20 21 22 22 21 20 20 20 19 19 20 20 18 17 17 17 16 13 9 11 13 9 7 8 8 7 5 5 5 6 6 6 8 9
Wind_Direction
175 172 181 174 167 164 164 165 159 161 164 164 159 155 151 145 138 133 129 125 122 119 118 118 116 114 116 121 128 138 149 159 165 170 164 156 144 127 122 127 137 151 155 155 155 148 142 138 137 137 132 127 121 115 113 105 95 89 87 85 80 73 69 67 65 60 55 53 52 49 44 41 40 37 36 34 35 36 33 33 32 30 31 34 37
168 168 179 176 168 165 166 165 162 164 166 165 161 157 152 147 140 135 131 126 122 119 117 114 109 105 105 106 114 122 130 138 145 152 151 150 138 128 128 136 147 156 154 153 154 148 142 140 139 137 132 127 120 116 114 104 96 93 90 83 74 68 66 64 63 61 56 53 52 49 44 42 40 37 37 36 34 32 31 33 29 27 31 34 36
166 166 176 177 168 167 167 166 166 166 168 166 162 159 153 148 142 138 133 128 122 117 114 108 101 97 98 101 106 113 120 127 134 141 143 144 136 133 137 148 159 156 150 150 152 148 144 143 141 138 133 127 121 121 115 104 99 95 90 81 74 68 64 63 62 61 57 52 51 49 44 41 39 37 36 35 33 30 32 34 28 27 33 30 29
170 166 175 177 168 168 168 168 168 167 169 168 164 160 155 149 142 140 135 128 121 116 113 103 96 95 96 100 104 111 118 126 133 139 140 141 138 139 145 155 160 153 148 150 151 149 148 145 142 138 133 128 124 123 114 106 102 98 94 85 79 70 65 64 61 59 56 50 49 48 42 37 36 36 34 32 31 30 31 29 23 25 34 33 26
173 168 176 175 169 169 169 170 170 168 170 169 166 161 156 150 144 141 137 129 122 118 112 103 99 99 97 99 104 113 119 126 134 137 137 138 143 144 148 155 154 149 149 150 151 151 150 146 143 139 135 131 128 123 114 109 105 101 97 89 81 72 67 68 62 57 55 50 47 45 40 34 32 35 34 30 28 28 29 27 21 20 29 37 34
174 172 178 176 170 169 170 171 171 170 171 171 168 163 158 152 149 144 138 130 125 120 111 105 105 106 101 101 106 117 122 124 128 133 133 132 141 145 145 151 150 148 150 151 153 153 150 147 143 141 137 134 130 123 117 112 108 106 100 95 88 76 64 65 64 55 53 49 44 42 37 32 29 33 35 29 26 27 27 25 21 21 25 32 36
178 176 180 180 173 170 172 172 173 173 172 174 170 165 161 155 153 146 139 133 128 122 113 109 111 112 107 105 108 118 124 121 122 128 133 132 136 140 144 148 149 150 151 153 154 154 151 148 144 142 139 134 129 123 120 116 114 115 113 113 101 80 41 47 54 48 48 44 41 39 34 31 28 31 36 29 25 24 25 22 19 22 24 26 30
182 180 182 183 180 174 173 174 175 176 175 174 173 168 162 158 157 148 140 135 131 124 117 116 115 117 115 112 109 116 122 121 125 127 133 136 135 138 145 148 150 152 153 155 156 155 152 148 146 142 139 134 128 124 123 123 123 129 137 144 133 102 19 11 25 33 37 37 37 34 30 28 25 31 34 26 21 19 20 19 20 24 23 22 28
187 186 186 185 185 181 177 177 177 179 178 176 175 171 165 162 159 151 142 137 133 127 123 121 119 119 118 117 113 115 122 127 131 129 133 138 140 143 147 151 154 156 157 158 158 156 153 149 147 143 140 133 128 126 127 129 132 141 153 163 161 149 5 354 6 18 21 27 33 29 26 25 24 33 33 22 17 15 16 18 21 22 20 19 27
190 191 192 189 187 185 181 179 180 181 180 179 177 173 169 165 162 155 145 140 135 131 128 125 123 121 120 119 115 116 124 132 134 133 137 142 147 150 151 155 157 159 160 161 159 157 155 152 150 145 140 134 128 127 130 134 141 153 162 176 168 153 15 3 6 12 14 24 29 24 23 21 24 32 27 17 13 14 17 19 18 17 20 20 22
193 195 195 193 189 185 182 181 182 182 181 181 179 176 173 169 165 158 149 145 140 136 131 128 124 124 123 122 120 120 125 134 139 138 141 147 153 155 156 158 160 162 162 162 161 159 158 156 153 147 142 135 130 128 134 141 156 168 178 224 197 148 13 16 18 32 36 33 24 21 23 19 22 26 18 13 14 15 16 15 12 14 22 24 21
195 197 196 194 190 184 180 181 182 184 183 184 183 180 177 173 167 160 153 149 146 141 133 130 127 127 127 125 125 122 126 136 143 144 145 150 157 159 159 161 163 164 164 164 163 163 162 161 157 152 145 136 132 134 141 151 170 180 197 270 275 337 14 24 30 46 43 33 22 22 22 15 19 22 14 12 15 14 10 8 9 12 19 23 22
194 195 196 193 189 186 180 179 182 185 185 186 187 184 182 177 169 161 158 154 149 145 137 134 132 132 130 130 130 124 126 137 145 147 149 154 159 161 161 164 165 166 166 166 166 166 165 164 162 157 148 139 136 142 151 162 182 193 211 269 284 324 11 26 32 40 36 28 22 21 15 12 16 18 13 12 12 9 5 4 6 10 16 18 20
200 196 195 192 189 187 181 180 182 186 188 189 189 186 185 179 170 163 161 157 152 148 144 142 140 137 135 136 134 128 126 134 146 150 151 154 159 162 163 166 167 168 168 169 169 168 168 167 166 161 151 144 143 152 164 178 195 209 224 254 274 307 358 14 20 22 24 22 16 12 9 10 13 13 13 12 9 5 3 1 5 10 12 13 17
214 205 197 192 190 187 181 180 183 187 189 191 191 188 187 181 172 166 164 160 156 153 151 148 145 142 141 141 139 135 130 131 143 151 153 155 159 163 165 168 169 170 171 172 172 171 172 170 169 163 154 150 152 166 179 195 209 220 236 245 261 283 332 353 0 4 12 14 10 9 8 9 10 8 12 11 4 359 359 1 5 9 10 11 16
212 209 199 193 190 187 182 181 184 189 190 191 192 188 187 181 173 169 167 163 161 160 157 153 149 146 146 146 144 142 137 134 138 149 154 157 161 165 167 169 170 172 173 174 174 175 175 173 172 167 160 159 164 181 189 207 212 221 242 243 249 259 293 343 0 7 14 14 9 7 6 6 6 6 9 7 0 358 0 5 7 8 12 14 17
186 199 198 193 191 188 183 182 185 189 190 190 192 188 186 181 176 174 171 168 167 165 161 158 154 151 151 151 150 148 143 139 140 147 154 159 164 166 169 171 172 174 175 175 177 179 178 176 175 170 167 170 180 189 196 210 211 223 245 250 247 255 297 347 7 14 17 13 7 3 0 1 4 6 8 7 5 7 9 9 7 10 15 17 21
160 185 192 192 191 190 186 184 186 189 190 189 191 187 184 181 178 178 176 174 172 169 166 163 160 157 156 156 155 154 149 146 145 149 155 162 166 169 171 173 175 175 177 178 181 183 182 181 180 175 176 183 189 190 198 208 211 226 244 251 253 276 333 358 4 13 15 10 6 359 355 359 6 7 7 8 9 15 15 10 9 18 23 24 28
153 173 186 192 193 193 191 188 188 190 190 190 190 186 182 181 180 182 181 179 176 173 170 167 165 161 161 161 161 160 155 152 152 153 158 164 168 170 173 175 176 177 179 182 185 186 186 187 184 180 182 187 187 188 199 206 212 228 239 241 249 292 341 355 1 10 10 7 3 354 356 4 9 11 9 9 11 16 18 13 16 24 26 32 35
158 167 179 191 196 198 195 193 191 191 191 189 192 187 182 182 183 186 186 183 179 176 174 172 170 166 165 166 166 165 159 158 158 159 160 165 170 173 175 176 179 180 183 186 188 190 191 191 187 183 184 184 182 185 196 203 214 229 236 239 256 328 345 349 4 8 1 360 358 356 5 10 13 17 13 12 15 19 21 18 22 26 25 29 24
167 171 176 187 195 200 199 197 194 192 191 189 193 190 186 186 188 190 189 186 181 178 177 176 173 170 169 170 170 168 164 162 162 164 165 166 169 173 177 178 181 183 185 188 191 194 194 193 190 187 185 182 179 184 193 202 215 231 243 263 314 352 358 359 8 360 350 350 355 4 14 15 18 20 16 16 16 18 18 15 19 19 16 14 7
174 175 179 186 192 199 201 200 196 194 192 191 193 192 190 190 191 191 189 187 182 180 180 178 175 172 172 173 173 171 167 167 167 168 168 170 171 174 177 180 183 185 188 191 193 195 195 196 194 191 188 182 179 185 193 204 217 233 260 290 329 352 4 9 4 355 348 347 353 8 15 17 21 19 18 17 13 11 9 9 14 10 7 7 5
182 181 181 185 191 199 202 200 197 196 193 193 193 194 194 192 193 193 189 188 185 183 182 179 176 174 176 177 176 174 172 172 173 173 173 175 177 179 182 184 188 190 193 194 195 197 198 201 199 197 191 184 182 187 195 209 221 234 267 284 310 343 357 358 356 354 350 347 348 355 1 9 20 20 20 20 18 9 3 6 9 5 7 8 2
188 185 184 187 192 198 202 200 198 197 195 194 193 193 194 194 195 193 191 190 187 185 183 180 177 176 179 181 180 178 177 178 179 179 179 181 184 187 188 189 192 194 196 196 199 201 203 205 202 198 191 186 187 191 202 216 227 240 264 275 293 336 344 347 355 354 349 345 341 341 344 356 9 9 10 13 14 7 5 2 355 356 359 353 344
192 186 187 191 192 193 197 197 195 197 197 194 192 192 193 195 198 195 193 192 188 186 184 182 180 180 182 183 183 182 183 184 184 185 185 187 189 193 195 195 197 198 200 201 205 206 206 203 195 191 188 190 195 201 213 225 235 247 259 264 280 322 328 347 357 348 342 340 338 340 343 349 348 355 10 12 8 8 356 333 332 338 340 336 333
194 191 190 191 188 185 190 194 191 192 194 193 188 188 191 195 199 196 195 193 189 188 186 185 183 183 185 186 185 185 188 188 187 189 190 193 192 195 198 199 202 203 203 203 205 203 200 194 188 188 187 192 203 211 220 229 239 247 253 246 226 253 291 340 348 341 339 339 341 345 348 344 336 344 1 349 335 331 322 318 322 327 329 331 333
194 193 191 188 185 181 184 189 187 187 189 187 184 185 190 195 198 198 198 195 191 191 189 188 186 187 190 190 190 189 190 189 190 190 192 198 198 197 200 201 203 204 200 197 198 198 196 192 191 193 193 199 207 212 218 223 231 236 234 205 203 233 266 310 336 345 343 342 346 350 348 341 333 329 325 317 316 317 317 318 322 327 331 337 343
193 190 189 188 185 181 181 181 183 185 186 184 182 184 188 193 196 198 199 196 194 194 192 190 190 192 194 195 195 192 190 190 192 193 193 201 205 201 200 200 199 197 193 192 196 196 193 193 199 203 203 203 201 206 210 213 219 217 196 195 210 236 265 298 338 351 348 349 354 354 347 338 331 328 322 318 319 321 323 324 328 335 343 351 356
194 190 187 187 187 186 182 177 180 185 188 186 184 185 188 193 196 198 199 197 195 196 195 194 194 196 198 201 202 198 193 192 194 196 195 203 210 205 200 197 196 196 194 194 199 197 194 196 203 209 209 203 201 206 207 209 215 202 190 209 223 240 261 297 349 354 357 2 359 350 340 333 329 327 326 325 327 331 335 338 341 348 356 2 3
195 192 188 185 184 188 185 177 179 187 192 191 187 188 192 196 198 199 200 198 195 197 199 197 197 200 204 208 207 202 198 196 198 201 201 205 213 211 206 203 203 203 200 200 201 199 200 203 207 210 211 206 204 208 208 211 214 205 204 217 233 244 265 314 344 351 360 0 353 343 334 330 329 329 330 334 341 346 349 352 357 0 1 2 4
198 195 189 184 183 188 187 178 179 188 197 196 190 190 194 199 201 202 202 198 195 198 202 201 201 203 208 212 208 201 199 199 202 204 207 211 217 217 214 213 213 211 206 204 203 202 203 205 208 210 210 208 209 213 214 218 218 208 209 219 235 248 279 315 329 339 343 341 341 338 334 333 333 335 342 352 357 357 359 3 5 5 3 2 4
201 197 188 184 186 188 186 182 181 188 198 199 195 194 197 200 200 202 200 195 195 200 205 206 204 205 211 215 209 203 201 204 208 212 218 222 222 221 220 218 216 214 211 210 209 208 206 203 209 212 211 209 212 217 218 223 222 210 209 222 236 254 285 304 319 326 328 331 335 337 338 337 338 344 356 5 7 4 5 6 6 4 2 3 5
200 197 191 187 187 190 188 186 186 190 197 201 202 200 199 200 198 196 194 193 196 201 207 209 207 208 215 216 210 205 204 210 219 226 232 232 226 224 224 220 217 216 214 216 215 211 206 203 209 213 212 211 210 213 219 221 219 213 212 223 236 257 282 296 311 317 322 328 333 337 337 337 342 354 5 10 11 8 6 4 5 3 1 3 5
198 195 195 191 187 192 192 189 191 194 198 201 206 203 199 199 195 190 189 193 197 203 209 211 210 212 218 217 210 207 210 219 227 232 236 236 230 227 227 223 219 218 217 220 218 210 205 203 209 212 211 214 213 215 223 221 215 215 214 221 238 256 277 292 303 312 321 327 332 335 334 337 348 1 8 12 13 10 7 2 1 1 1 3 7
199 196 198 193 188 192 196 195 194 196 199 202 203 202 202 200 194 189 189 193 200 207 211 213 214 215 218 216 211 214 218 226 230 232 236 237 233 232 230 223 219 219 218 220 216 210 205 202 208 214 213 215 220 218 218 222 218 216 215 218 233 253 275 292 302 313 321 325 329 332 335 345 356 3 6 9 11 10 8 2 0 2 4 8 12
201 200 198 193 189 191 199 202 199 199 202 203 202 202 204 203 197 192 191 195 202 209 211 213 214 215 218 215 214 220 223 229 232 233 238 239 236 232 227 221 217 217 217 216 213 209 205 203 209 215 220 224 224 216 208 215 217 211 209 211 226 257 283 294 304 313 319 323 327 331 342 356 0 4 5 7 9 9 9 5 6 7 10 16 18
203 203 200 196 191 190 198 205 204 204 204 206 204 204 206 205 202 198 196 199 206 210 210 212 213 215 217 217 218 223 225 230 233 234 238 241 237 229 226 221 215 215 217 216 212 210 207 206 210 213 226 233 226 214 206 206 208 207 208 220 246 273 288 295 303 311 319 323 326 335 350 359 1 4 5 7 10 7 6 8 15 15 17 22 21
205 206 205 201 194 192 198 204 207 207 208 209 207 207 209 207 205 206 205 207 212 215 214 213 213 215 219 221 224 225 226 231 233 233 238 242 238 231 228 223 216 216 218 217 215 214 208 207 212 211 219 232 228 219 211 206 208 215 225 244 265 278 284 290 298 309 317 319 320 334 353 358 358 2 5 7 9 8 7 12 22 24 24 24 20
205 206 208 206 201 196 198 203 206 208 210 211 210 211 211 208 208 212 214 216 220 220 217 215 215 218 222 226 229 227 228 232 233 234 237 240 238 234 230 224 220 220 221 220 218 216 210 207 213 213 211 221 227 225 221 217 219 228 240 251 262 271 275 279 292 304 309 310 314 330 346 356 357 359 1 3 6 9 14 20 28 30 28 24 17
204 206 208 208 204 199 198 202 205 207 209 210 211 211 209 207 209 213 215 218 222 220 218 218 219 222 227 231 231 229 230 233 234 235 236 236 237 235 231 226 224 223 223 223 220 218 216 214 214 216 212 212 215 220 225 229 229 229 234 245 253 255 258 267 285 295 298 301 317 341 348 358 4 3 359 360 8 15 20 25 35 38 34 27 21
204 205 209 209 206 201 200 202 204 205 207 209 211 211 209 207 209 213 214 217 220 218 217 218 221 225 231 235 233 230 231 232 234 235 233 234 236 234 230 229 226 224 223 223 221 218 218 218 216 216 217 214 213 216 223 231 234 228 222 227 235 236 235 245 264 276 293 311 327 349 9 16 18 15 7 8 11 19 25 26 35 41 38 31 25
204 205 209 210 207 204 202 204 204 205 207 210 212 213 213 212 213 213 213 216 219 218 218 219 221 225 232 235 233 232 231 233 234 233 234 234 235 234 229 228 226 222 220 219 220 219 219 222 222 220 220 223 226 226 228 230 233 234 232 228 219 212 212 225 242 255 270 308 327 349 15 22 24 22 22 28 14 6 26 26 33 36 33 30 24
205 205 209 209 208 206 204 206 207 207 207 211 214 215 215 216 217 216 215 218 220 221 221 222 225 229 233 234 233 233 232 233 233 233 236 235 234 232 228 227 225 222 222 222 223 223 224 228 230 231 230 230 231 231 232 231 230 231 232 226 216 208 208 220 231 239 249 278 314 341 2 7 16 16 15 29 20 347 33 36 42 38 30 27 20
207 206 208 208 209 207 205 206 208 209 208 210 215 216 216 217 217 218 219 222 223 223 222 224 229 233 234 232 232 231 230 232 233 234 236 235 234 230 226 228 228 226 228 229 230 230 231 233 235 237 239 238 235 232 232 229 229 231 227 218 213 210 213 221 225 230 240 249 270 308 350 354 7 13 10 25 29 41 103 57 53 43 30 25 19
208 209 210 210 210 209 206 206 208 210 210 211 213 215 216 216 214 215 219 222 224 223 222 221 225 231 232 230 231 230 229 231 233 235 235 233 233 230 227 228 230 233 234 233 234 236 237 238 240 242 245 247 244 239 234 229 230 236 237 229 220 217 222 224 220 226 236 235 244 266 310 332 358 18 11 35 53 93 113 77 58 41 27 21 16
211 213 213 212 212 211 207 206 208 209 210 212 213 214 215 216 216 214 216 218 220 221 221 222 224 228 229 229 231 231 231 232 234 236 235 231 232 232 230 230 232 235 239 237 235 238 240 241 246 250 252 255 250 243 240 235 234 236 236 236 235 235 234 225 216 218 227 229 235 246 255 267 26 56 22 51 70 75 77 64 45 30 18 12 8
215 215 214 214 213 212 209 206 208 210 210 212 213 215 215 218 220 220 220 220 220 220 222 224 227 230 230 231 233 233 234 235 236 237 235 231 233 234 234 234 236 236 239 241 239 242 245 247 252 256 258 257 250 245 244 242 240 239 238 237 238 242 244 233 225 224 225 226 230 235 236 224 170 112 68 67 70 50 40 29 22 15 5 1 357
216 215 214 215 215 213 211 208 208 210 212 213 214 215 216 218 220 222 223 223 224 224 223 225 228 231 232 233 234 235 236 236 235 236 234 233 234 236 237 238 239 238 238 242 244 246 248 251 255 259 259 256 252 249 246 245 246 244 243 242 240 242 244 244 246 246 243 234 226 226 224 207 178 146 136 142 128 76 49 20 3 356 349 349 348
215 216 216 216 215 213 211 209 209 211 213 214 215 216 218 219 220 222 223 224 225 226 227 227 228 230 232 234 234 235 236 235 233 233 233 234 235 236 238 238 238 240 241 246 250 252 254 257 259 260 260 258 256 252 247 247 249 248 248 248 245 243 240 240 244 242 241 239 230 226 221 203 185 172 159 151 148 126 90 338 327 331 326 332 338
216 217 216 215 214 213 212 210 209 211 213 215 216 217 218 220 222 223 223 223 224 226 226 227 229 230 231 232 233 234 235 233 232 232 232 233 235 236 238 238 236 239 244 250 255 259 261 262 262 261 261 259 256 252 249 248 248 249 251 250 248 245 240 237 237 233 231 234 236 233 223 208 193 176 163 155 154 155 178 250 276 292 302 315 327
216 216 215 215 214 214 212 210 210 212 214 216 217 218 219 220 222 224 224 223 223 224 225 226 227 229 229 231 233 234 234 232 232 233 233 233 234 236 239 239 239 241 245 251 255 259 261 261 260 258 257 255 252 249 248 248 248 248 249 249 250 249 247 246 246 242 238 237 238 234 218 206 195 175 167 165 170 188 215 240 255 267 285 304 315